Date,TemperatureHighF,TemperatureAvgF,TemperatureLowF,DewpointHighF,DewpointAvgF,DewpointLowF,HumidityHigh,HumidityAvg,HumidityLow,PressureMaxIn,PressureMinIn,WindSpeedMaxMPH,WindSpeedAvgMPH,GustSpeedMaxMPH,PrecipitationSumIn
2013-1-1,45,40,32,43,38,25,97,93,74,29.83,29.62,8,3,15,0.00
2013-1-2,35,30,26,26,16,9,75,56,35,29.88,29.80,7,2,10,0.00
2013-1-3,42,32,22,24,16,10,82,55,29,30.03,29.88,7,1,10,0.00
2013-1-4,45,32,22,27,19,13,87,61,29,30.12,30.00,5,0,6,0.00
2013-1-5,47,37,26,32,24,18,86,61,33,30.00,29.88,8,2,10,0.00
2013-1-6,50,39,30,37,26,18,89,62,28,30.00,29.85,8,2,10,0.00
2013-1-7,50,35,23,24,17,10,80,51,24,30.03,29.83,8,1,9,0.00
2013-1-8,60,46,30,32,25,17,72,47,26,29.88,29.77,8,2,9,0.00
2013-1-9,55,54,51,54,50,34,96,88,46,29.94,29.83,6,2,8,0.00
2013-1-10,66,61,55,64,59,54,97,93,71,29.88,29.53,15,5,25,0.00
2013-1-11,66,60,53,61,48,34,94,68,32,29.68,29.56,11,5,15,0.00
2013-1-12,72,68,64,66,60,54,94,77,55,29.59,29.35,11,5,17,0.00
2013-1-13,69,44,30,59,40,21,96,85,57,29.85,29.38,14,6,19,0.00
2013-1-14,31,28,26,22,18,12,82,65,50,30.00,29.85,14,5,20,0.00
2013-1-15,32,28,25,27,23,19,85,80,77,29.85,29.68,8,3,14,0.00
2013-1-16,32,31,29,30,28,26,93,90,82,29.80,29.65,0,0,0,0.00
2013-1-17,47,36,29,34,27,22,93,73,38,30.09,29.74,9,2,15,0.00
2013-1-18,50,36,24,32,20,13,90,58,24,30.18,29.97,6,1,7,0.00
2013-1-19,56,43,33,25,22,19,68,45,25,29.97,29.80,11,4,15,0.00
2013-1-20,58,44,31,36,22,14,81,47,22,29.88,29.74,8,2,11,0.00
2013-1-21,42,34,24,20,10,4,56,38,23,29.94,29.77,11,4,17,0.00
2013-1-22,41,31,22,15,10,6,71,43,28,30.03,29.91,7,2,8,0.00
2013-1-23,54,40,26,34,20,9,72,47,29,29.94,29.77,6,1,8,0.00
2013-1-24,45,41,36,37,15,8,75,37,25,30.03,29.80,10,4,15,0.00
2013-1-25,50,40,31,46,28,11,90,65,28,29.85,29.68,8,2,11,0.00
2013-1-26,56,43,30,41,24,18,94,56,25,29.94,29.85,7,1,8,0.00
2013-1-27,65,55,47,46,33,22,66,45,35,29.88,29.74,9,4,12,0.00
2013-1-28,70,62,57,55,48,43,85,61,40,29.80,29.68,14,6,17,0.00
2013-1-29,75,67,58,59,51,43,91,60,33,29.68,29.12,19,8,30,0.00
2013-1-30,67,48,30,63,35,13,95,64,36,29.65,29.12,15,4,26,0.00
2013-1-31,52,39,26,27,18,14,77,46,26,29.94,29.65,12,4,17,0.00
2013-2-1,35,28,22,18,2,-2,51,33,22,30.15,29.91,8,3,12,0.00
2013-2-2,49,37,25,29,18,4,72,47,29,29.91,29.74,7,1,10,0.00
2013-2-3,54,42,32,30,20,11,80,47,21,29.80,29.74,10,2,13,0.00
2013-2-4,58,45,32,41,25,18,80,50,24,29.74,29.53,11,3,13,0.00
2013-2-5,62,50,37,46,36,26,87,63,27,29.68,29.53,7,1,9,0.00
2013-2-6,64,50,34,46,32,26,91,55,25,29.80,29.65,6,1,9,0.00
2013-2-7,69,58,50,50,38,27,81,47,33,29.65,29.50,8,2,11,0.00
2013-2-8,56,44,31,54,34,20,94,68,42,29.91,29.50,12,5,18,0.00
2013-2-9,56,42,27,34,24,18,92,54,25,29.91,29.68,6,2,10,0.00
2013-2-10,59,54,50,55,43,23,93,68,33,29.68,29.35,10,5,15,0.00
2013-2-11,55,49,43,54,27,17,93,46,25,29.80,29.56,6,1,8,0.00
2013-2-12,54,46,40,37,27,18,81,49,27,29.77,29.38,8,2,9,0.00
2013-2-13,45,40,34,41,34,27,97,79,51,29.65,29.35,7,1,13,0.00
2013-2-14,59,44,33,41,28,17,93,59,22,29.68,29.62,11,2,15,0.00
2013-2-15,54,43,32,34,23,12,85,49,21,29.80,29.65,8,2,11,0.00
2013-2-16,40,33,25,24,11,6,70,41,29,29.85,29.80,8,2,16,0.00
2013-2-17,53,41,27,19,15,10,54,36,21,29.88,29.68,10,4,13,0.00
2013-2-18,59,50,40,52,34,19,95,56,35,29.71,29.38,22,7,30,0.00
2013-2-19,48,40,27,39,18,9,76,44,22,29.88,29.56,9,2,13,0.00
2013-2-20,39,32,26,24,12,0,79,44,26,29.94,29.77,8,1,11,0.00
2013-2-21,47,39,31,45,27,12,96,66,27,29.77,29.35,8,3,14,0.00
2013-2-22,50,42,38,43,34,25,97,75,42,29.68,29.47,6,1,10,0.00
2013-2-23,50,39,29,29,20,15,75,49,27,29.65,29.56,8,3,11,0.00
2013-2-24,59,44,27,32,20,15,83,45,19,29.71,29.50,6,2,9,0.00
2013-2-25,60,52,42,54,29,13,93,44,26,29.50,28.91,12,5,21,0.00
2013-2-26,52,44,40,50,30,20,95,58,41,29.41,28.97,13,6,22,0.00
2013-2-27,50,42,38,25,21,17,55,43,31,29.56,29.41,9,2,13,0.00
2013-2-28,43,38,29,22,16,12,64,41,30,29.71,29.56,8,2,12,0.00
2013-3-1,38,35,29,23,18,14,67,50,40,29.74,29.68,6,2,10,0.00
2013-3-2,35,32,29,24,15,6,72,51,34,29.83,29.74,8,3,11,0.00
2013-3-3,47,34,20,20,12,7,76,44,22,29.83,29.68,7,1,9,0.00
2013-3-4,67,52,33,36,20,11,51,30,17,29.68,29.38,17,6,22,0.00
2013-3-5,61,49,38,55,29,9,88,48,27,29.77,29.38,14,6,18,0.00
2013-3-6,44,37,30,21,13,9,66,38,29,29.94,29.77,10,4,17,0.00
2013-3-7,52,40,28,23,19,15,73,45,26,29.97,29.85,7,2,9,0.00
2013-3-8,63,47,30,25,18,11,72,35,16,29.97,29.77,6,1,9,0.00
2013-3-9,71,60,51,24,20,13,26,21,17,29.77,29.53,13,4,16,0.00
2013-3-10,68,58,51,50,41,24,95,59,24,29.59,29.35,19,6,25,0.00
2013-3-11,52,42,32,50,27,18,95,59,33,29.65,29.41,6,1,11,0.00
2013-3-12,56,40,27,32,20,10,89,52,20,29.80,29.62,8,1,9,0.00
2013-3-13,50,42,30,25,15,9,58,34,24,30.00,29.80,9,2,14,0.00
2013-3-14,62,44,26,25,19,0,79,44,19,30.00,29.77,9,2,12,0.00
2013-3-15,74,60,45,36,30,22,50,35,23,29.77,29.50,15,6,21,0.00
2013-3-16,74,64,56,45,40,34,61,42,27,29.53,29.44,14,6,20,0.00
2013-3-17,73,63,54,52,42,36,72,47,27,29.50,29.29,12,4,13,0.00
2013-3-18,68,56,41,61,47,37,92,72,41,29.65,29.29,13,4,18,0.00
2013-3-19,60,46,32,45,24,9,95,52,17,29.80,29.62,9,2,14,0.00
2013-3-20,55,45,33,24,15,2,62,31,20,29.83,29.68,9,2,15,0.00
2013-3-21,50,39,27,21,8,0,57,29,19,29.71,29.53,8,2,11,0.00
2013-3-22,49,42,34,43,37,22,92,81,59,29.59,29.47,6,2,11,0.00
2013-3-23,54,49,46,48,44,39,90,81,66,29.50,29.26,7,2,10,0.00
2013-3-24,51,46,36,52,34,14,97,69,38,29.56,29.18,9,3,22,0.00
2013-3-25,41,36,33,14,11,8,42,35,30,29.83,29.56,9,4,14,0.00
2013-3-26,47,37,28,16,13,10,60,39,27,29.94,29.83,9,2,13,0.00
2013-3-27,57,40,23,30,18,13,79,46,20,30.00,29.88,8,1,10,0.00
2013-3-28,68,50,31,34,23,15,78,40,17,29.94,29.83,8,1,10,0.00
2013-3-29,67,55,48,50,34,22,77,48,22,29.85,29.74,10,2,11,0.00
2013-3-30,59,55,52,55,50,43,94,82,57,29.77,29.53,6,1,9,0.00
2013-3-31,66,58,47,61,50,41,94,78,43,29.56,29.47,8,1,10,0.00
2013-4-1,68,54,42,52,35,26,92,56,23,29.71,29.53,9,2,11,0.00
2013-4-2,55,47,39,31,21,13,72,37,20,29.83,29.68,10,4,13,0.00
2013-4-3,50,44,41,41,24,12,87,50,24,29.80,29.68,8,3,15,0.00
2013-4-4,49,45,41,45,40,26,93,82,51,29.71,29.53,5,2,8,0.00
2013-4-5,74,52,42,45,32,16,96,56,16,29.77,29.62,7,1,9,0.00
2013-4-6,79,58,40,46,30,20,85,43,15,29.71,29.50,13,3,18,0.00
2013-4-7,74,63,51,43,37,28,57,39,23,29.65,29.50,13,4,15,0.00
2013-4-8,82,68,59,50,43,36,63,42,21,29.59,29.47,12,5,17,0.00
2013-4-9,83,73,64,57,51,45,72,48,30,29.59,29.47,12,6,19,0.00
2013-4-10,84,76,68,59,51,41,67,43,24,29.56,29.26,14,7,21,0.00
2013-4-11,75,53,41,64,50,39,96,90,38,29.47,29.29,13,1,19,0.00
2013-4-12,74,52,37,55,35,25,95,62,21,29.88,29.44,9,1,13,0.00
2013-4-13,81,57,42,41,32,23,87,46,15,30.74,29.65,7,1,9,0.00
2013-4-14,69,62,54,48,38,31,70,43,28,31.01,29.65,14,4,17,0.00
2013-4-15,88,67,53,55,49,41,90,56,21,31.01,30.09,9,4,14,0.00
2013-4-16,86,75,67,64,58,50,81,58,31,31.01,30.50,10,4,15,0.00
2013-4-17,87,76,66,70,58,46,92,58,28,31.01,30.92,11,4,15,0.00
2013-4-18,83,70,45,64,50,39,93,54,23,31.01,31.01,14,6,20,0.00
2013-4-19,59,46,39,43,25,17,91,46,25,31.01,31.01,8,2,14,0.00
2013-4-20,71,52,35,46,27,18,86,46,17,31.01,31.01,7,1,10,0.00
2013-4-21,73,58,43,34,24,18,62,30,14,31.01,31.01,9,2,11,0.00
2013-4-22,77,60,41,45,35,29,79,44,20,31.01,31.01,8,2,13,0.00
2013-4-23,76,66,56,54,47,39,78,54,31,31.01,31.01,12,4,17,0.00
2013-4-24,68,50,38,61,38,26,92,66,35,31.01,31.01,9,3,11,0.00
2013-4-25,71,50,32,48,30,20,92,55,17,31.01,29.94,7,1,9,0.00
2013-4-26,74,56,42,50,35,23,80,51,16,30.00,29.83,7,2,12,0.00
2013-4-27,77,64,53,66,52,37,91,66,41,29.83,29.50,10,2,14,0.00
2013-4-28,71,62,50,57,47,37,85,60,33,29.59,29.56,6,1,9,0.00
2013-4-29,83,63,45,61,44,36,92,58,20,29.65,29.50,6,1,8,0.00
2013-4-30,84,68,50,54,43,34,86,47,19,29.59,29.53,8,2,10,0.00
2013-5-1,82,70,63,57,49,43,72,48,30,29.68,29.56,8,2,14,0.00
2013-5-2,66,64,60,63,56,46,94,77,52,29.74,29.62,4,0,6,0.00
2013-5-3,62,49,36,61,47,34,95,93,87,29.62,29.50,6,1,10,0.00
2013-5-4,62,46,32,46,35,26,95,71,27,29.59,29.50,5,1,9,0.00
2013-5-5,61,50,43,46,40,27,97,72,30,29.56,29.50,7,1,10,0.00
2013-5-6,65,57,51,54,47,39,91,70,39,29.59,29.47,7,1,15,0.00
2013-5-7,80,63,48,59,46,36,96,60,22,29.65,29.56,6,1,8,0.00
2013-5-8,86,66,49,64,45,36,91,55,19,29.71,29.62,8,1,9,0.00
2013-5-9,82,70,58,57,49,41,86,52,25,29.71,29.59,11,3,16,0.00
2013-5-10,77,68,62,68,61,50,93,80,41,29.62,29.50,10,2,16,0.00
2013-5-11,77,66,56,63,48,32,96,60,22,29.68,29.53,8,2,11,0.00
2013-5-12,73,58,44,52,27,16,81,35,15,29.85,29.68,8,2,12,0.00
2013-5-13,84,60,40,46,35,26,84,46,18,29.91,29.77,8,1,10,0.00
2013-5-14,93,71,56,43,39,32,56,34,14,29.77,29.65,10,4,17,0.00
2013-5-15,86,73,60,45,40,32,54,32,19,29.77,29.59,12,4,17,0.00
2013-5-16,84,71,62,64,51,39,88,54,23,29.62,29.53,8,2,10,0.00
2013-5-17,87,70,65,70,60,50,92,71,32,29.59,29.50,8,2,10,0.00
2013-5-18,88,75,64,72,63,55,93,71,34,29.62,29.53,6,1,9,0.00
2013-5-19,92,79,70,70,58,45,91,56,24,29.62,29.50,9,4,13,0.00
2013-5-20,92,80,70,70,58,50,88,50,26,29.59,29.47,12,5,17,0.00
2013-5-21,81,71,63,70,64,50,95,79,49,29.59,29.38,8,2,13,0.00
2013-5-22,92,70,62,70,56,41,97,68,20,29.53,29.41,7,2,11,0.00
2013-5-23,87,72,60,68,51,37,93,55,20,29.74,29.53,6,1,8,0.00
2013-5-24,84,65,54,50,38,28,72,40,16,29.91,29.74,10,3,15,0.00
2013-5-25,84,67,49,54,41,32,87,45,16,29.91,29.77,5,1,8,0.00
2013-5-26,88,70,54,57,45,34,91,48,18,29.83,29.71,9,2,10,0.00
2013-5-27,91,75,62,59,50,39,71,46,18,29.74,29.62,10,3,14,0.00
2013-5-28,95,78,69,61,48,34,67,38,15,29.68,29.59,10,5,13,0.00
2013-5-29,92,78,64,57,50,39,66,40,19,29.68,29.56,9,4,13,0.00
2013-5-30,88,77,68,68,58,48,88,57,29,29.65,29.56,14,4,20,0.00
2013-5-31,94,78,70,68,62,54,87,61,27,29.62,29.47,9,4,17,0.00
2013-6-1,89,73,65,72,65,45,92,77,32,29.62,29.44,10,3,17,0.00
2013-6-2,81,72,64,66,57,46,94,64,32,29.59,29.53,6,1,8,0.00
2013-6-3,89,71,59,64,51,39,93,56,20,29.65,29.53,6,1,8,0.00
2013-6-4,93,74,59,61,51,39,91,50,20,29.65,29.53,4,0,6,0.00
2013-6-5,91,76,65,63,57,50,84,55,28,29.56,29.50,7,1,8,0.00
2013-6-6,85,74,66,71,58,48,94,61,30,29.47,29.38,6,1,12,0.00
2013-6-7,88,72,60,63,50,36,80,50,18,29.53,29.38,7,2,11,0.00
2013-6-8,97,73,56,64,46,34,92,48,13,29.62,29.50,6,1,10,0.00
2013-6-9,90,76,65,68,56,46,93,56,27,29.62,29.44,8,3,13,0.00
2013-6-10,97,79,67,79,59,43,95,58,21,29.56,29.50,10,3,15,0.00
2013-6-11,102,84,70,68,59,46,84,49,17,29.68,29.56,7,2,11,0.00
2013-6-12,98,84,71,72,61,52,89,51,24,29.68,29.56,8,3,11,0.00
2013-6-13,97,83,69,70,57,43,83,46,17,29.59,29.50,9,3,13,0.00
2013-6-14,93,76,64,66,49,36,92,48,17,29.68,29.56,10,1,13,0.00
2013-6-15,99,77,61,64,52,41,90,51,17,29.71,29.59,6,1,7,0.00
2013-6-16,93,78,68,68,59,50,86,57,27,29.68,29.56,7,1,11,0.00
2013-6-17,85,75,70,72,66,55,92,77,42,29.62,29.47,7,1,10,0.00
2013-6-18,84,74,68,72,62,46,96,71,29,29.62,29.47,8,1,11,0.00
2013-6-19,95,77,65,79,56,41,93,58,18,29.68,29.56,10,1,16,0.00
2013-6-20,100,80,65,72,56,43,92,54,16,29.77,29.65,5,1,6,0.00
2013-6-21,98,82,68,64,57,45,81,48,18,29.80,29.71,7,2,9,0.00
2013-6-22,97,80,68,68,57,46,87,50,19,29.77,29.65,7,2,9,0.00
2013-6-23,96,80,68,66,57,46,78,49,19,29.74,29.65,7,2,9,0.00
2013-6-24,97,83,70,70,61,48,90,53,22,29.77,29.65,7,2,9,0.00
2013-6-25,94,83,71,70,59,46,87,50,21,29.71,29.56,9,3,12,0.00
2013-6-26,98,84,72,70,59,48,84,47,20,29.65,29.50,11,4,15,0.00
2013-6-27,98,84,72,70,62,54,77,51,27,29.56,29.44,8,2,12,0.00
2013-6-28,98,77,70,75,65,48,93,71,21,29.59,29.35,12,1,17,0.00
2013-6-29,96,78,66,70,54,37,92,53,16,29.41,29.32,8,1,10,0.00
2013-6-30,85,71,62,64,53,43,91,57,25,29.47,29.32,7,2,10,0.00
2013-7-1,84,70,63,64,57,46,93,66,30,29.56,29.44,8,1,12,0.00
2013-7-2,88,72,59,66,52,39,93,56,23,29.68,29.53,6,1,8,0.00
2013-7-3,92,72,60,64,53,37,93,58,18,29.71,29.65,5,1,8,0.00
2013-7-4,87,75,62,68,58,48,91,60,26,29.68,29.56,6,1,10,0.00
2013-7-5,88,75,64,70,60,50,93,66,28,29.71,29.59,7,2,13,0.00
2013-7-6,92,77,65,75,60,48,95,61,24,29.71,29.59,7,1,9,0.00
2013-7-7,97,80,69,72,60,48,92,58,19,29.74,29.65,7,1,10,0.00
2013-7-8,98,81,70,72,62,52,93,58,21,29.80,29.68,5,1,8,0.00
2013-7-9,100,84,72,73,62,50,91,54,19,29.77,29.65,7,2,11,0.00
2013-7-10,97,83,74,75,65,55,84,57,27,29.68,29.50,6,2,8,0.00
2013-7-11,98,84,73,70,59,46,85,47,18,29.59,29.50,8,2,12,0.00
2013-7-12,93,77,63,57,49,39,77,41,18,29.65,29.56,9,2,13,0.00
2013-7-13,94,75,61,57,49,39,81,46,17,29.65,29.56,8,2,13,0.00
2013-7-14,91,78,66,68,57,50,81,53,27,29.71,29.59,6,2,10,0.00
2013-7-15,94,80,72,70,63,54,86,58,27,29.80,29.68,8,2,12,0.00
2013-7-16,96,83,72,70,60,50,82,51,23,29.88,29.80,7,1,10,0.00
2013-7-17,102,83,69,72,60,46,91,53,17,29.91,29.77,6,1,8,0.00
2013-7-18,95,79,70,73,65,54,90,66,28,29.83,29.68,8,1,13,0.00
2013-7-19,97,79,68,72,61,50,93,61,21,29.71,29.56,7,2,9,0.00
2013-7-20,101,82,68,72,60,48,92,54,18,29.62,29.47,9,2,11,0.00
2013-7-21,94,82,72,72,60,46,91,53,21,29.62,29.50,9,2,14,0.00
2013-7-22,86,77,68,73,66,55,94,70,35,29.62,29.50,11,3,18,0.00
2013-7-23,89,77,69,73,68,57,94,78,35,29.62,29.47,8,1,14,0.00
2013-7-24,91,79,73,77,64,50,95,64,30,29.59,29.47,7,1,10,0.00
2013-7-25,83,74,65,63,52,39,88,51,23,29.71,29.59,9,2,12,0.00
2013-7-26,84,73,60,68,56,41,93,60,24,29.71,29.59,4,0,6,0.00
2013-7-27,90,71,68,66,63,52,90,79,30,29.62,29.53,5,0,8,0.00
2013-7-28,83,73,66,66,56,45,92,60,30,29.68,29.56,6,1,9,0.00
2013-7-29,81,67,64,59,55,45,80,66,28,29.77,29.68,4,0,5,0.00
2013-7-30,91,82,73,64,58,52,65,46,28,29.77,29.65,8,2,10,0.00
2013-7-31,93,79,73,73,65,55,91,64,31,29.68,29.56,7,1,11,0.00
2013-8-2,74,72,70,66,64,63,82,76,69,29.62,29.59,0,0,0,0.00
2013-8-3,88,77,70,68,64,57,89,65,35,29.68,29.56,8,1,10,0.00
2013-8-4,91,79,67,75,60,46,94,60,24,29.74,29.65,7,1,11,0.00
2013-8-5,88,76,69,73,65,54,91,70,32,29.68,29.56,9,1,12,0.00
2013-8-9,96,88,72,72,60,45,91,45,19,29.65,29.56,7,1,10,0.00
2013-8-10,92,81,73,75,65,52,92,62,27,29.74,29.65,10,1,13,0.00
2013-8-11,90,78,73,73,68,55,92,74,34,29.74,29.68,9,1,11,0.00
2013-8-13,85,76,73,70,64,54,85,67,36,29.68,29.56,6,1,8,0.00
2013-8-14,80,72,62,66,49,36,76,48,22,29.71,29.59,10,4,14,0.00
2013-8-15,85,68,56,55,47,36,89,53,20,29.71,29.62,8,2,10,0.00
2013-8-16,85,71,59,63,54,45,89,61,26,29.68,29.62,5,1,6,0.00
2013-8-17,83,73,65,66,57,46,92,61,29,29.71,29.62,6,1,8,0.00
2013-8-18,86,72,64,70,60,48,92,71,29,29.74,29.68,5,1,8,0.00
2013-8-21,87,74,0,70,60,0,92,60,30,29.74,29.68,4,0,6,0.00
2013-8-22,94,79,70,73,64,46,94,68,21,29.77,29.65,7,0,9,0.00
2013-8-23,92,73,68,72,65,48,96,80,23,29.71,29.62,3,0,5,0.00
2013-8-24,95,80,70,73,62,43,92,64,18,29.77,29.65,8,1,13,0.00
2013-8-25,96,79,71,72,61,43,93,61,18,29.88,29.77,6,1,9,0.00
2013-8-26,92,78,68,68,56,43,91,53,18,29.88,29.77,5,1,8,0.00
2013-8-27,94,79,64,66,53,41,90,47,18,29.80,29.68,6,1,8,0.00
2013-8-28,97,78,64,68,53,41,92,52,16,29.74,29.65,6,1,8,0.00
2013-8-29,95,80,73,66,61,46,79,56,20,29.62,29.59,4,0,4,0.00
2013-8-30,98,82,68,73,58,43,92,54,17,29.65,29.50,8,1,11,0.00
2013-8-31,98,79,70,68,60,45,86,59,18,29.56,29.44,6,0,9,0.00
2013-9-1,97,81,72,68,60,45,78,53,19,29.53,29.44,14,2,23,0.00
2013-9-2,92,81,73,68,61,52,82,53,28,29.59,29.47,8,2,13,0.00
2013-9-3,90,79,70,70,54,39,92,52,19,29.65,29.53,9,2,14,0.00
2013-9-4,90,78,60,70,49,37,93,42,19,29.74,29.68,9,2,11,0.00
2013-9-5,90,77,62,66,51,41,90,49,18,29.77,29.71,8,2,11,0.00
2013-9-6,81,74,69,61,55,46,72,53,31,29.68,29.65,0,0,4,0.00
2013-9-7,94,79,64,66,53,43,88,48,17,29.71,29.59,7,1,8,0.00
2013-9-8,98,81,67,64,54,41,82,46,16,29.62,29.53,6,1,8,0.00
2013-9-9,93,79,71,72,60,50,72,53,23,29.68,29.56,6,1,9,0.00
2013-9-10,100,82,72,68,59,43,80,51,16,29.77,29.65,8,2,12,0.00
2013-9-11,93,76,72,72,64,46,90,70,22,29.80,29.68,4,0,5,0.00
2013-9-12,96,78,69,72,60,43,93,63,17,29.71,29.56,8,1,12,0.00
2013-9-13,84,73,60,70,49,31,93,50,16,29.65,29.56,9,3,14,0.00
2013-9-14,81,64,51,54,39,27,84,45,17,29.71,29.62,10,2,15,0.00
2013-9-15,81,57,49,61,46,34,90,72,20,29.74,29.65,5,1,8,0.00
2013-9-17,92,81,64,66,48,39,90,37,17,29.77,29.65,7,1,10,0.00
2013-9-18,88,78,69,66,57,52,82,52,29,29.74,29.62,8,3,9,0.00
2013-9-19,93,82,68,72,52,41,92,39,18,29.74,29.59,8,3,10,0.00
2013-9-20,82,74,70,72,62,52,93,70,43,29.62,29.44,8,2,9,0.00
2013-9-21,75,67,55,63,42,31,94,46,21,29.53,29.47,12,4,16,0.00
2013-9-22,77,64,51,57,42,32,93,55,21,29.56,29.47,8,2,13,0.00
2013-9-23,53,53,52,50,49,48,88,87,86,29.56,29.53,0,0,0,0.00
2013-9-28,82,74,63,55,46,37,72,41,22,29.74,29.65,7,0,11,0.00
2013-9-29,73,66,63,63,55,48,92,70,43,29.68,29.56,3,0,5,0.00
2013-9-30,66,65,65,64,64,63,93,93,92,29.59,29.56,2,0,4,0.00
2013-10-1,67,66,66,63,61,61,84,83,82,29.65,29.65,0,0,0,0.00
2013-11-5,71,63,54,39,35,29,51,37,25,29.91,29.77,8,4,13,0.00
2013-11-6,64,58,48,59,46,36,94,65,43,29.80,29.65,10,4,15,0.00
2013-11-7,54,46,34,29,23,18,80,46,25,30.00,29.94,9,2,15,0.00
2013-11-8,60,45,31,46,29,22,92,61,24,30.00,29.83,6,1,8,0.00
2013-11-9,63,51,41,41,32,24,77,52,24,29.91,29.80,6,1,10,0.00
2013-11-10,67,52,41,48,35,26,90,57,24,29.97,29.88,8,1,13,0.00
2013-11-11,68,52,37,45,33,27,85,56,23,29.91,29.77,5,1,8,0.00
2013-11-12,53,40,30,48,22,8,85,49,29,30.27,29.83,16,6,24,0.00
2013-11-13,47,33,24,18,13,8,70,45,22,30.30,30.06,6,2,10,0.00
2013-11-14,57,39,24,26,16,8,79,45,17,30.06,29.77,9,2,13,0.00
2013-11-15,60,50,41,50,37,17,87,62,38,29.80,29.62,6,1,8,0.00
2013-11-16,68,59,53,63,55,50,91,84,64,29.68,29.50,10,4,13,0.00
2013-11-17,75,68,53,68,60,34,93,77,40,29.62,29.35,13,6,18,0.00
2013-11-18,57,48,40,45,34,24,80,61,29,29.80,29.62,8,1,11,0.00
2013-11-19,54,44,32,32,18,13,75,38,20,29.91,29.77,8,2,11,0.00
2013-11-20,62,46,29,36,26,22,85,50,25,29.80,29.68,9,2,11,0.00
2013-11-21,70,60,49,57,46,34,94,63,36,29.83,29.74,9,4,13,0.00
2013-11-22,61,54,45,59,52,36,95,92,73,30.00,29.80,12,4,17,0.00
2013-11-23,47,39,29,39,12,4,92,33,26,30.15,29.97,14,7,23,0.00
2013-11-24,37,29,22,7,4,2,46,35,24,30.24,30.03,14,5,26,0.00
2013-11-25,37,34,31,34,22,4,93,64,31,30.03,29.74,5,1,8,0.00
2013-11-26,39,36,33,37,30,15,97,80,41,29.74,29.53,10,5,17,0.00
2013-11-27,33,27,19,8,4,1,62,39,30,30.00,29.80,11,4,18,0.00
2013-11-28,43,29,17,18,11,7,73,50,23,30.09,30.00,7,1,10,0.00
2013-11-29,54,37,24,26,18,14,76,50,23,30.18,30.03,6,1,6,0.00
2013-11-30,58,38,27,32,20,15,79,53,19,30.06,29.83,9,2,12,0.00
2013-12-1,61,50,37,29,24,17,49,36,27,29.83,29.56,8,2,10,0.00
2013-12-2,62,54,49,48,41,29,81,61,42,29.56,29.35,5,0,7,0.00
2013-12-3,60,55,49,57,52,45,93,88,76,29.38,29.29,5,1,8,0.00
2013-12-4,75,66,58,64,55,46,94,69,35,29.47,29.32,17,5,23,0.00
2013-12-5,67,51,35,63,45,31,94,81,60,29.71,29.47,11,5,16,0.00
2013-12-6,33,30,25,32,29,22,96,94,89,30.03,29.71,9,2,16,0.00
2013-12-7,30,25,22,26,21,17,89,83,77,30.15,29.94,0,0,0,0.00
2013-12-8,35,33,32,34,32,30,97,94,90,29.83,29.68,6,0,9,0.00
2013-12-9,34,32,31,34,27,18,98,82,55,29.88,29.77,8,4,11,0.00
2013-12-10,35,29,23,26,19,14,86,67,52,30.06,29.80,5,1,8,0.00
2013-12-11,45,32,20,34,18,14,84,60,29,30.15,30.00,8,2,11,0.00
2013-12-12,42,32,20,14,9,3,67,41,21,30.21,30.00,5,1,7,0.00
2013-12-13,50,36,24,34,16,10,87,47,22,30.00,29.56,9,2,15,0.00
2013-12-14,45,40,36,43,30,20,95,67,53,29.74,29.44,8,3,13,0.00
2013-12-15,39,33,29,23,18,15,77,55,41,29.88,29.74,9,3,13,0.00
2013-12-16,56,42,29,37,25,21,88,57,27,29.85,29.74,11,6,17,0.00
2013-12-17,60,43,31,30,24,21,71,48,25,29.91,29.77,8,3,11,0.00
2013-12-18,57,42,27,32,22,17,83,51,25,29.97,29.74,9,3,12,0.00
2013-12-19,59,50,41,41,31,26,56,49,43,29.77,29.59,11,5,15,0.00
2013-12-20,68,63,58,61,52,41,84,66,50,29.62,29.44,13,7,18,0.00
2013-12-21,76,68,60,61,54,46,92,62,36,29.44,29.12,19,9,31,0.00
2013-12-22,59,50,37,57,43,20,96,77,50,29.85,29.29,8,3,14,0.00
2013-12-23,38,34,25,20,15,10,73,47,34,30.12,29.85,10,4,18,0.00
2013-12-24,35,27,23,19,10,2,77,52,27,30.21,30.03,9,2,13,0.00
2013-12-25,47,38,21,16,13,9,65,37,24,30.03,29.91,8,2,9,0.00
2013-12-26,47,34,26,28,16,9,78,50,24,30.03,29.94,8,2,14,0.00
2013-12-27,54,36,23,31,17,11,79,50,20,30.09,29.97,6,1,8,0.00
2013-12-28,48,39,29,37,27,17,88,65,36,29.97,29.59,4,0,8,0.00
2013-12-29,57,45,36,48,33,20,95,67,34,29.80,29.56,9,2,13,0.00
2013-12-30,36,32,29,21,16,12,59,53,46,29.97,29.80,9,3,14,0.00
2013-12-31,45,32,22,28,17,14,82,58,30,30.09,29.91,8,1,8,0.00
2014-1-1,52,40,24,36,23,17,86,57,27,29.91,29.56,9,3,11,0.00
2014-1-2,51,35,21,46,18,2,84,52,34,30.06,29.50,14,6,24,0.00